Jackson Hawkins Field, MS

7:57 AM CST on January 18, 2018 (GMT -0600)
Hawkins

Weather History for KHKS - July, 2013

Change the Weather History Date:

Thursday, July 18, 2013

  Actual Average (KJAN) Record (KJAN)
Temperature  
Mean Temperature 78 °F -  
Max Temperature 89 °F 92 °F 104 °F (1944)
Min Temperature 71 °F 70 °F 61 °F (1967)
Cooling Degree Days 14    
Growing Degree Days 28 (Base 50)    
Moisture  
Dew Point 71 °F    
Average Humidity 90    
Maximum Humidity 100    
Minimum Humidity 61    
Precipitation  
Precipitation 0.24 in - - ()
Sea Level Pressure  
Sea Level Pressure 30.09 in    
Wind  
Wind Speed 3 mph (NW)    
Max Wind Speed 13 mph    
Max Gust Speed 16 mph    
Visibility 8 miles    
Events Fog , Rain    
Averages and records for this station are not official NWS values.
T = Trace of Precipitation, MM = Missing Value Source: NWS Daily Summary

Daily Weather History Graph

Daily Weather History Graph

Search for Another Location

Airport or City:

Trip Planner

Search our weather history database for the weather conditions in past years. The results will help you decide how hot, cold, wet, or windy it might be!

Date:

Astronomy

Jul. 18, 2013 Rise Set
Actual Time 6:06 AM CDT 8:07 PM CDT
Civil Twilight 5:39 AM CDT 8:34 PM CDT
Nautical Twilight 5:05 AM CDT 9:08 PM CDT
Astronomical Twilight 4:29 AM CDT 9:43 PM CDT
Moon 4:05 PM CDT 1:53 AM CDT
Length of Visible Light 14h 55m
Length of Day
14h 00m
Waxing Gibbous, 77% of the Moon is Illuminated
Jul 18
Waxing Gibbous
Jul 22
Full
Jul 29
Last Quarter
Aug 6
New
Aug 14
First Quarter

Hourly Weather History & Observations

Time (CDT) Temp. Heat Index Dew Point Humidity Pressure Visibility Wind Dir Wind Speed Gust Speed Precip Events Conditions
12:53 AM 75.9 °F - 72.0 °F 87% 30.14 in 10.0 mi Calm Calm - N/A   Clear
1:53 AM 75.9 °F - 73.0 °F 91% 30.13 in 10.0 mi Calm Calm - N/A   Clear
2:53 AM 75.0 °F - 72.0 °F 90% 30.12 in 10.0 mi NW 3.5 mph - N/A   Clear
3:53 AM 73.9 °F - 72.0 °F 93% 30.12 in 10.0 mi Calm Calm - N/A   Clear
4:53 AM 73.9 °F - 72.0 °F 93% 30.11 in 10.0 mi NW 3.5 mph - N/A   Clear
5:53 AM 73.9 °F - 72.0 °F 93% 30.11 in 10.0 mi Calm Calm - N/A   Clear
6:53 AM 73.9 °F - 72.0 °F 93% 30.13 in 9.0 mi Calm Calm - N/A   Scattered Clouds
7:53 AM 73.9 °F - 71.1 °F 91% 30.15 in 10.0 mi ESE 6.9 mph 16.1 mph 0.00 in   Clear
8:53 AM 73.0 °F - 70.0 °F 90% 30.15 in 10.0 mi SE 12.7 mph - 0.00 in Rain Light Rain
9:53 AM 73.9 °F - 71.1 °F 91% 30.15 in 10.0 mi SE 4.6 mph - 0.01 in   Mostly Cloudy
10:53 AM 75.0 °F - 70.0 °F 84% 30.16 in 10.0 mi South 3.5 mph - N/A   Clear
11:53 AM 78.1 °F - 70.0 °F 76% 30.13 in 10.0 mi SW 5.8 mph - N/A   Clear
12:53 PM 82.9 °F 88.8 °F 73.0 °F 72% 30.09 in 10.0 mi Variable 3.5 mph - N/A   Clear
1:53 PM 86.0 °F 92.2 °F 72.0 °F 63% 30.08 in 10.0 mi Calm Calm - N/A   Mostly Cloudy
2:53 PM 86.0 °F 91.5 °F 71.1 °F 61% 30.04 in 10.0 mi North 3.5 mph - N/A   Scattered Clouds
3:33 PM 73.4 °F - 69.8 °F 88% 30.06 in 2.0 mi North 5.8 mph - 0.06 in Rain Light Rain
3:41 PM 73.4 °F - 69.8 °F 88% 30.06 in 10.0 mi North 8.1 mph - 0.06 in Rain Light Rain
3:53 PM 73.0 °F - 70.0 °F 90% 30.05 in 10.0 mi NNW 6.9 mph - 0.07 in Rain Light Rain
4:46 PM 73.4 °F - 71.6 °F 94% 30.09 in 1.8 mi WSW 6.9 mph - 0.08 in Rain Heavy Rain
4:53 PM 73.9 °F - 72.0 °F 93% 30.07 in 1.2 mi West 6.9 mph - 0.12 in Rain Heavy Rain
5:06 PM 73.4 °F - 71.6 °F 94% 30.09 in 2.5 mi West 8.1 mph - 0.03 in Rain Rain
5:14 PM 73.4 °F - 71.6 °F 94% 30.08 in 6.0 mi NNW 3.5 mph - 0.04 in Rain Light Rain
5:53 PM 73.0 °F - 71.1 °F 93% 30.06 in 10.0 mi North 5.8 mph - 0.04 in   Clear
6:53 PM 73.9 °F - 72.0 °F 93% 30.04 in 10.0 mi NW 4.6 mph - N/A   Clear
7:05 PM 73.4 °F - 71.6 °F 94% 30.06 in 10.0 mi NW 4.6 mph - N/A   Partly Cloudy
7:53 PM 73.0 °F - 72.0 °F 96% 30.04 in 10.0 mi Calm Calm - N/A   Scattered Clouds
8:25 PM 73.4 °F - 71.6 °F 94% 30.08 in 10.0 mi Calm Calm - 0.00 in Rain Light Rain
8:38 PM 73.4 °F - 71.6 °F 94% 30.08 in 10.0 mi Calm Calm - 0.00 in   Mostly Cloudy
8:53 PM 73.0 °F - 72.0 °F 96% 30.06 in 10.0 mi Calm Calm - 0.00 in   Mostly Cloudy
9:07 PM 73.4 °F - 71.6 °F 94% 30.08 in 9.0 mi Calm Calm - N/A   Partly Cloudy
9:53 PM 73.0 °F - 72.0 °F 96% 30.07 in 6.0 mi NW 3.5 mph - N/A   Mostly Cloudy
10:00 PM 73.4 °F - 71.6 °F 94% 30.10 in 1.8 mi Calm Calm - N/A   Mostly Cloudy
10:08 PM 73.4 °F - 71.6 °F 94% 30.10 in 3.0 mi Calm Calm - N/A   Overcast
10:53 PM 73.0 °F - 72.0 °F 96% 30.08 in 7.0 mi Calm Calm - N/A   Overcast
11:21 PM 71.6 °F - 71.6 °F 100% 30.09 in 1.5 mi Calm Calm - N/A   Overcast
11:30 PM 71.6 °F - 71.6 °F 100% 30.08 in 0.5 mi Calm Calm - N/A Fog Fog
11:53 PM 72.0 °F - 71.1 °F 97% 30.06 in 0.8 mi WNW 3.5 mph - N/A   Mist